{"data":{"norad_id":58511,"epoch":"2026-09-19T20:40:02.985024Z","epoch_age_seconds":202169,"freshness":"STALE","line1":"1 58511U 23191D   26262.86114566  .00001057  00000+0  47928-4 0  9997","line2":"2 58511  43.0025  87.1707 0001602 257.0710 102.9963 15.27579796155163","mean_motion":15.27579796,"eccentricity":0.0001602,"inclination_deg":43.0025,"raan_deg":87.1707,"arg_perigee_deg":257.071,"mean_anomaly_deg":102.9963,"bstar":4.7928e-5,"rev_number":15516,"period_min":94.266761302465,"perigee_km":481.95054477867,"apogee_km":484.14886899955,"semimajor_km":6861.1867068891,"source":"CELESTRAK","updated_at":"2026-09-21T09:00:33.907153Z"}}